| time (UTC) | temp F | wind direction | speed knots | gust knots | rain 1hr in | rain 24hr in | rain mn in | humidity % | barometer mb |
| 20260904104556 | 71 | 0 | 0.0 | 0.0 | 0.00 | 0.00 | 0.00 | 93 | 1017.1 |
| 20260904103055 | 72 | 0 | 0.0 | 0.0 | 0.00 | 0.00 | 0.00 | 93 | 1016.9 |
| 20260904101605 | 72 | 0 | 0.0 | 0.0 | 0.00 | 0.00 | 0.00 | 93 | 1016.8 |
| 20260904100047 | 72 | 0 | 0.0 | 0.0 | 0.00 | 0.00 | 0.00 | 93 | 1016.8 |
| 20260904094553 | 72 | 0 | 0.0 | 0.0 | 0.00 | 0.00 | 0.00 | 93 | 1016.6 |
| 20260904093051 | 72 | 0 | 0.0 | 0.0 | 0.00 | 0.00 | 0.00 | 93 | 1016.5 |
| 20260904091551 | 73 | 0 | 0.0 | 0.0 | 0.00 | 0.00 | 0.00 | 93 | 1016.5 |
| 20260904090049 | 73 | 0 | 0.0 | 0.0 | 0.00 | 0.00 | 0.00 | 93 | 1016.4 |
| 20260904084552 | 73 | 0 | 0.0 | 0.0 | 0.00 | 0.00 | 0.00 | 93 | 1016.4 |
| 20260904083105 | 73 | 0 | 0.0 | 0.0 | 0.00 | 0.00 | 0.00 | 93 | 1016.3 |
| 20260904081548 | 73 | 0 | 0.0 | 0.0 | 0.00 | 0.00 | 0.00 | 93 | 1016.5 |
| 20260904080104 | 73 | 0 | 0.0 | 0.0 | 0.00 | 0.00 | 0.00 | 93 | 1016.5 |
| 20260904074557 | 73 | 0 | 0.0 | 0.0 | 0.00 | 0.00 | 0.00 | 93 | 1016.5 |
| 20260904073103 | 73 | 0 | 0.0 | 0.0 | 0.00 | 0.00 | 0.00 | 92 | 1016.5 |
| 20260904071553 | 74 | 0 | 0.0 | 0.0 | 0.00 | 0.00 | 0.00 | 92 | 1016.5 |
| 20260904070100 | 74 | 0 | 0.0 | 0.0 | 0.00 | 0.00 | 0.00 | 92 | 1016.6 |
| 20260904064607 | 74 | 0 | 0.0 | 0.0 | 0.00 | 0.00 | 0.00 | 92 | 1016.8 |
| 20260904063107 | 74 | 0 | 0.0 | 0.0 | 0.00 | 0.00 | 0.00 | 91 | 1017.1 |
| 20260904061552 | 75 | 0 | 0.0 | 0.0 | 0.00 | 0.00 | 0.00 | 91 | 1017.2 |
| 20260904060110 | 75 | 0 | 0.0 | 0.0 | 0.00 | 0.00 | 0.00 | 90 | 1017.2 |
| 20260904054555 | 75 | 0 | 0.0 | 0.0 | 0.00 | 0.00 | 0.00 | 90 | 1017.5 |
| 20260904053055 | 76 | 0 | 0.0 | 0.0 | 0.00 | 0.00 | 0.00 | 90 | 1017.5 |
| 20260904051552 | 76 | 0 | 0.0 | 0.0 | 0.00 | 0.00 | 0.00 | 90 | 1017.6 |
| 20260904050058 | 76 | 0 | 0.0 | 0.0 | 0.00 | 0.00 | 0.00 | 90 | 1017.6 |
| 20260904044553 | 76 | 0 | 0.0 | 0.0 | 0.00 | 0.00 | 0.00 | 90 | 1017.6 |
| 20260904043054 | 76 | 0 | 0.0 | 0.0 | 0.00 | 0.00 | 0.00 | 90 | 1017.5 |
| 20260904041600 | 76 | 0 | 0.0 | 0.0 | 0.00 | 0.00 | 0.00 | 90 | 1017.4 |
| 20260904040054 | 76 | 0 | 0.0 | 0.9 | 0.00 | 0.00 | 0.00 | 90 | 1017.5 |
| 20260904034552 | 76 | 0 | 0.0 | 0.0 | 0.00 | 0.00 | 0.00 | 90 | 1017.6 |
| 20260904033058 | 77 | 0 | 0.0 | 0.0 | 0.00 | 0.00 | 0.00 | 90 | 1017.5 |
| 20260904031553 | 77 | 0 | 0.0 | 0.0 | 0.00 | 0.00 | 0.00 | 90 | 1017.6 |
| 20260904030055 | 77 | 0 | 0.0 | 0.0 | 0.00 | 0.00 | 0.00 | 90 | 1017.7 |
| 20260904024601 | 77 | 0 | 0.0 | 0.0 | 0.00 | 0.00 | 0.00 | 89 | 1017.6 |
| 20260904023052 | 78 | 0 | 0.0 | 0.0 | 0.00 | 0.00 | 0.00 | 89 | 1017.7 |
| 20260904021557 | 78 | 0 | 0.0 | 0.0 | 0.00 | 0.00 | 0.00 | 88 | 1017.7 |
| 20260904020052 | 79 | 0 | 0.0 | 0.0 | 0.00 | 0.00 | 0.00 | 88 | 1017.7 |
| 20260904014553 | 79 | 0 | 0.0 | 0.0 | 0.00 | 0.00 | 0.00 | 87 | 1017.5 |
| 20260904013118 | 80 | 0 | 0.0 | 0.0 | 0.00 | 0.00 | 0.00 | 85 | 1017.4 |
| 20260904011554 | 80 | 0 | 0.0 | 0.0 | 0.00 | 0.00 | 0.00 | 85 | 1017.2 |
| 20260904010050 | 81 | 0 | 0.0 | 0.0 | 0.00 | 0.00 | 0.00 | 83 | 1017.0 |
| 20260904004556 | 82 | 0 | 0.0 | 0.0 | 0.00 | 0.00 | 0.00 | 82 | 1016.7 |
| 20260904003053 | 82 | 0 | 0.0 | 0.0 | 0.00 | 0.00 | 0.00 | 80 | 1016.4 |
| 20260904001609 | 84 | 0 | 0.0 | 0.0 | 0.00 | 0.00 | 0.00 | 79 | 1016.2 |
| 20260904000048 | 85 | 0 | 0.0 | 0.0 | 0.00 | 0.00 | 0.00 | 76 | 1016.0 |
| 20260903234556 | 87 | 0 | 0.0 | 0.0 | 0.00 | 0.00 | 0.00 | 72 | 1015.8 |
| 20260903233054 | 89 | 0 | 0.0 | 0.0 | 0.00 | 0.00 | 0.00 | 67 | 1015.9 |
| 20260903231608 | 91 | 0 | 0.0 | 0.9 | 0.00 | 0.00 | 0.00 | 65 | 1015.7 |
| 20260903230057 | 93 | 0 | 0.0 | 0.9 | 0.00 | 0.00 | 0.00 | 60 | 1015.7 |
| 20260903224603 | 94 | 0 | 0.0 | 0.9 | 0.00 | 0.00 | 0.00 | 55 | 1015.7 |
| 20260903223058 | 95 | 0 | 0.0 | 2.6 | 0.00 | 0.00 | 0.00 | 52 | 1015.6 |
| 20260903221555 | 96 | 0 | 0.0 | 0.9 | 0.00 | 0.00 | 0.00 | 53 | 1015.8 |
| 20260903214553 | 95 | 0 | 0.0 | 1.7 | 0.00 | 0.00 | 0.00 | 56 | 1015.8 |
| 20260903213110 | 96 | 0 | 0.0 | 1.7 | 0.00 | 0.00 | 0.00 | 52 | 1015.9 |
| 20260903211556 | 96 | 206 | 0.0 | 3.5 | 0.00 | 0.00 | 0.00 | 52 | 1016.0 |
| 20260903210058 | 94 | 32 | 0.9 | 3.5 | 0.00 | 0.00 | 0.00 | 54 | 1016.1 |
| 20260903204600 | 94 | 0 | 0.0 | 1.7 | 0.00 | 0.00 | 0.00 | 54 | 1016.1 |
| 20260903203058 | 94 | 0 | 0.0 | 2.6 | 0.00 | 0.00 | 0.00 | 52 | 1016.2 |
| 20260903201554 | 96 | 0 | 0.0 | 1.7 | 0.00 | 0.00 | 0.00 | 48 | 1016.2 |
| 20260903200056 | 98 | 0 | 0.0 | 5.2 | 0.00 | 0.00 | 0.00 | 46 | 1016.3 |
| 20260903194601 | 98 | 118 | 0.9 | 2.6 | 0.00 | 0.00 | 0.00 | 45 | 1016.5 |
| 20260903193057 | 98 | 228 | 0.0 | 2.6 | 0.00 | 0.00 | 0.00 | 45 | 1016.7 |
| 20260903191554 | 99 | 120 | 0.9 | 3.5 | 0.00 | 0.00 | 0.00 | 45 | 1016.9 |
| 20260903190054 | 98 | 102 | 0.9 | 5.2 | 0.00 | 0.00 | 0.00 | 49 | 1017.0 |
| 20260903184552 | 97 | 148 | 0.0 | 0.9 | 0.00 | 0.00 | 0.00 | 46 | 1017.1 |
| 20260903183052 | 97 | 165 | 0.0 | 2.6 | 0.00 | 0.00 | 0.00 | 49 | 1017.3 |
| 20260903181556 | 99 | 53 | 0.9 | 2.6 | 0.00 | 0.00 | 0.00 | 48 | 1017.5 |
| 20260903180109 | 96 | 0 | 0.9 | 3.5 | 0.00 | 0.00 | 0.00 | 53 | 1017.5 |
| 20260903174555 | 95 | 0 | 0.0 | 0.9 | 0.00 | 0.00 | 0.00 | 58 | 1017.8 |
| 20260903173052 | 95 | 0 | 0.0 | 2.6 | 0.00 | 0.00 | 0.00 | 51 | 1018.0 |
| 20260903171558 | 98 | 33 | 0.0 | 4.3 | 0.00 | 0.00 | 0.00 | 51 | 1018.1 |
| 20260903170058 | 96 | 244 | 0.0 | 5.2 | 0.00 | 0.00 | 0.00 | 55 | 1018.4 |
| 20260903164604 | 96 | 104 | 0.0 | 0.9 | 0.00 | 0.00 | 0.00 | 55 | 1018.4 |
| 20260903163114 | 95 | 233 | 0.9 | 2.6 | 0.00 | 0.00 | 0.00 | 53 | 1018.7 |
| 20260903161558 | 96 | 329 | 0.0 | 1.7 | 0.00 | 0.00 | 0.00 | 55 | 1018.7 |
| 20260903160053 | 94 | 163 | 0.0 | 1.7 | 0.00 | 0.00 | 0.00 | 55 | 1018.8 |
| 20260903154550 | 94 | 155 | 0.0 | 1.7 | 0.00 | 0.00 | 0.00 | 60 | 1018.9 |
| 20260903153103 | 94 | 0 | 0.0 | 0.9 | 0.00 | 0.00 | 0.00 | 60 | 1018.9 |
| 20260903151602 | 93 | 0 | 0.0 | 0.9 | 0.00 | 0.00 | 0.00 | 63 | 1019.0 |
| 20260903150055 | 91 | 21 | 0.0 | 0.9 | 0.00 | 0.00 | 0.00 | 65 | 1018.9 |
| 20260903144559 | 90 | 0 | 0.0 | 1.7 | 0.00 | 0.00 | 0.00 | 69 | 1018.8 |
| 20260903143057 | 89 | 54 | 0.0 | 1.7 | 0.00 | 0.00 | 0.00 | 68 | 1018.9 |
| 20260903141553 | 88 | 0 | 0.0 | 0.9 | 0.00 | 0.00 | 0.00 | 72 | 1018.8 |
| 20260903140057 | 87 | 0 | 0.0 | 0.9 | 0.00 | 0.00 | 0.00 | 74 | 1018.8 |
| 20260903134612 | 86 | 0 | 0.0 | 0.9 | 0.00 | 0.00 | 0.00 | 77 | 1018.8 |
| 20260903133058 | 84 | 0 | 0.0 | 0.9 | 0.00 | 0.00 | 0.00 | 80 | 1018.8 |
| 20260903131557 | 82 | 0 | 0.0 | 0.9 | 0.00 | 0.00 | 0.00 | 86 | 1018.8 |
| 20260903124606 | 75 | 0 | 0.0 | 0.0 | 0.00 | 0.00 | 0.00 | 95 | 1019.0 |
| 20260903123053 | 74 | 0 | 0.0 | 0.0 | 0.00 | 0.00 | 0.00 | 95 | 1019.0 |
| 20260903121557 | 73 | 0 | 0.0 | 0.0 | 0.00 | 0.00 | 0.00 | 95 | 1018.9 |
| 20260903120117 | 72 | 0 | 0.0 | 0.0 | 0.00 | 0.00 | 0.00 | 95 | 1018.8 |
| 20260903114602 | 72 | 0 | 0.0 | 0.0 | 0.00 | 0.00 | 0.00 | 95 | 1018.8 |
| 20260903113053 | 71 | 0 | 0.0 | 0.0 | 0.00 | 0.00 | 0.00 | 94 | 1018.6 |
| 20260903111553 | 71 | 0 | 0.0 | 0.0 | 0.00 | 0.00 | 0.00 | 94 | 1018.6 |